Погода в Яунпиебалге

Латвия     57°10′37″N   26°02′04″E
темп.,
°C
ветер,
м/с
пор.,
м/с
влажн.,
%
обл.,
%
осадки,
мм/ч
давл.,
гПа
погр.,
м
21 января, пт
пт2123:00−1сз51096100 2.2 981697
02:00−3ссз61293100 2.6 985869
05:00−3ссз51190100 0.1 988885
08:00−3ссз51195100 0.7 991902
11:00−3ссз61293100 1.1 993979
14:00−3ссз61293100 2.3 9951085
17:00−4ссз61294100 1.1 9971092
20:00−4с51094100 2.6 1000807
22 января, сб
сб2223:00−5с51191100 0.4 1003743
02:00−4с51195100 1.4 1006944
05:00−4с51292100 0.5 1009824
08:00−5ссз51191100 0.7 1011746
11:00−5ссз51092100 0.3 1013757
14:00−5ссз5990100 0.6 1014767
17:00−6ссз41093100 0.2 1016657
20:00−6с4994100 0.7 1018606
23 января, вс
вс2323:00−7с3796100 0.1 1021326
02:00−9ссз2798100 0.2 1024208
05:00−11ссз25100100 0.1 102585
08:00−12с11100100 0.1 10289
11:00−8св129121 0.0 1030130
14:00−6вюв118585 0.0 1031207
17:00−11ююз119796 0.0 103310
20:00−12ю229863 0.0 103429
24 января, пн
пн2423:00−11ю269646 0.0 103594
02:00−10ююз39945 0.0 1034175
05:00−10ююз411935 0.0 1034237
08:00−10ююз413916 0.0 1032286
11:00−7ююз5158532 0.0 1031377
14:00−6ююз5158171 0.0 1028509
17:00−6ююз61681100 0.0 1026490
20:00−6ююз51689100 0.0 1024504
25 января, вт
вт2523:00−5ююз51491100 0.3 1022500
02:00−5ююз51293100 0.5 1019437
05:00−4ююз41195100 1.3 1016407
08:00−4ююз1597100 3.4 1015288
11:00−2ссз2896100 2.2 1016404
14:00−1с41196100 3.3 1016765
17:00−3с51191100 0.3 1019711
20:00−4с51192100 0.4 1022823